GEFSNE_500_meanwind_006.txt.gz
Wind_Speed
81 81 80 80 79 79 77 75 74 75 73 70 69 66 64 63 61 59 57 55 51 49 48 47 47 46 41 40 41 43 46 46 47 48 46 46 47 49
85 84 83 80 79 78 76 75 74 73 76 71 69 68 67 65 62 61 59 55 52 50 50 50 49 47 44 42 42 45 47 47 47 46 46 46 47 49
86 84 82 81 80 79 78 77 75 73 73 70 65 63 62 62 62 61 58 55 52 49 49 50 49 47 46 44 44 46 47 48 48 48 47 47 47 50
86 84 81 79 79 78 78 77 74 72 72 71 66 61 59 59 59 59 57 55 52 49 49 49 48 47 46 46 46 48 48 48 49 49 47 47 49 52
83 81 79 77 76 75 76 75 75 73 72 71 67 61 57 56 56 56 55 53 52 51 51 50 48 47 45 46 47 49 50 50 50 50 49 49 51 53
78 77 75 74 74 74 74 74 74 74 72 71 68 63 58 56 56 55 54 53 52 51 52 51 50 48 45 46 47 49 51 52 51 52 54 53 53 55
73 72 71 72 72 73 74 73 73 72 71 70 68 64 60 58 57 55 54 53 53 54 56 54 50 49 47 46 46 47 50 53 54 55 55 54 53 55
72 71 71 70 70 71 71 71 71 70 69 67 66 64 61 59 58 56 54 53 54 54 54 50 47 47 48 49 51 50 51 55 57 57 54 51 51 53
74 74 73 72 73 73 72 70 69 69 69 69 67 64 62 59 59 57 55 53 53 54 53 50 46 44 47 49 52 51 51 53 54 53 50 49 49 52
81 81 79 77 77 78 76 73 71 70 70 69 68 65 62 59 58 57 54 53 52 49 48 46 45 44 45 45 44 45 47 49 50 51 50 50 51 53
84 82 81 78 76 76 75 73 71 69 67 65 63 61 58 56 55 54 52 50 48 45 44 45 43 43 43 43 42 43 44 45 48 50 51 52 54 56
82 78 75 72 70 69 68 67 65 62 59 56 54 52 52 51 50 48 47 46 44 43 41 41 40 40 40 41 40 39 40 42 46 48 50 53 55 54
77 71 66 63 61 59 57 55 54 52 49 47 45 44 45 44 43 41 40 40 40 40 38 38 37 37 37 36 35 36 37 39 42 45 50 52 52 51
69 63 58 53 50 47 45 44 43 42 41 39 36 34 34 35 35 33 33 33 35 37 38 37 35 34 35 34 34 35 35 37 40 44 47 48 49 49
57 53 49 44 40 37 35 34 34 35 34 31 28 27 27 27 26 26 27 29 32 36 37 35 34 33 32 32 33 34 35 38 42 45 46 47 47 45
43 42 41 38 33 29 27 26 27 28 27 24 23 23 22 21 21 23 24 27 29 31 31 31 28 26 24 27 30 34 37 41 44 45 46 46 44 42
32 32 32 31 28 23 20 20 21 22 21 20 19 18 18 18 19 20 21 21 21 23 24 22 20 19 22 27 31 35 39 42 44 45 44 43 40 36
30 28 27 26 22 18 16 15 16 17 18 17 15 14 15 16 17 17 16 14 15 16 15 14 15 19 24 28 33 38 41 42 42 41 40 38 35 32
29 27 24 20 15 13 12 12 13 15 15 12 10 11 12 13 14 15 16 16 14 13 12 14 17 21 26 31 35 37 38 38 38 37 34 34 35 35
28 24 19 13 11 12 10 9 9 9 7 6 7 9 10 11 12 14 17 16 13 11 12 15 20 24 29 31 33 34 34 34 33 34 34 36 38 39
23 19 13 9 12 11 9 6 4 3 3 5 6 7 8 9 12 16 16 13 10 10 14 18 23 26 29 30 31 31 30 32 34 37 38 38 37 34
18 13 8 11 12 10 7 3 1 3 6 8 9 9 9 11 14 15 12 9 9 12 16 20 23 25 26 28 30 32 33 35 37 37 35 32 28 24
14 8 8 13 13 10 6 2 4 8 11 13 13 13 13 14 12 9 5 5 9 13 16 19 21 23 26 28 32 35 36 34 31 27 24 21 19 18

GEFSNE_500_meanwind_012.txt.gz
Wind_Speed
99 101 101 100 99 97 95 93 92 94 93 87 82 77 75 74 73 73 73 72 72 72 72 71 70 67 64 61 59 57 57 57 57 57 56 54 52 50
103 103 101 98 94 90 85 80 78 79 81 75 71 68 67 67 68 70 71 72 71 70 70 70 68 67 64 63 60 58 56 57 59 59 59 57 54 53
102 99 94 90 83 78 73 71 69 70 71 68 64 63 63 64 64 66 67 68 68 67 66 66 66 65 64 64 62 59 56 56 57 58 60 59 56 55
93 88 82 77 72 69 68 67 67 68 71 70 65 63 63 64 64 64 65 66 66 64 63 62 62 63 63 63 63 61 57 56 56 56 58 58 56 55
82 77 74 72 70 69 70 70 71 72 74 76 73 69 66 65 65 64 64 64 63 62 61 61 61 62 62 62 62 62 59 57 56 55 56 56 56 55
76 75 75 75 75 76 76 77 78 79 80 82 81 78 75 72 71 68 65 63 62 62 61 61 61 61 62 61 60 60 60 59 58 57 56 56 55 54
77 79 80 82 84 85 86 86 87 88 88 88 87 84 80 77 75 73 69 64 60 60 61 61 61 61 61 61 61 61 61 60 60 60 58 57 56 55
84 85 87 89 91 92 92 93 93 94 93 90 87 84 79 75 72 70 69 65 60 58 61 59 60 59 59 61 61 61 61 61 60 59 58 57 56 55
89 89 88 87 88 89 89 89 88 87 85 83 80 75 71 67 64 62 61 61 58 56 59 56 57 57 57 59 59 60 60 60 59 56 56 55 55 56
81 78 77 76 76 77 78 76 73 70 67 65 64 62 60 56 54 52 51 52 53 53 56 54 54 56 56 57 58 58 58 57 56 53 52 52 52 55
67 66 65 65 63 63 63 60 57 53 50 49 48 49 49 46 43 42 42 45 45 47 50 52 52 53 53 53 55 56 55 53 51 51 49 49 49 52
60 58 58 57 55 53 51 49 45 41 38 35 35 37 38 35 34 34 34 36 37 38 41 45 47 48 48 48 49 50 49 49 47 46 46 46 48 49
56 53 52 50 49 46 45 43 40 36 31 27 24 25 26 26 25 26 28 29 29 29 31 36 38 40 41 40 40 42 43 44 42 41 42 43 44 44
52 49 48 47 45 43 41 39 37 33 27 20 15 14 16 17 19 21 23 25 24 22 22 26 28 31 33 33 34 36 38 39 37 37 39 40 41 41
47 44 44 44 43 41 39 37 33 27 19 12 8 8 10 13 15 18 20 21 21 19 17 18 21 25 27 28 30 33 34 33 33 33 35 36 38 38
44 42 42 42 42 39 36 33 28 20 12 7 5 6 8 11 14 16 18 18 17 16 14 14 17 20 22 24 26 29 30 30 30 30 31 33 34 34
44 42 41 40 37 34 31 27 20 13 8 6 6 6 7 10 12 14 14 14 14 13 13 13 14 16 19 21 23 26 27 28 29 30 31 31 31 31
43 40 39 37 33 28 23 17 12 9 9 10 10 9 8 9 10 10 10 9 9 10 10 11 12 14 16 19 21 23 24 26 28 28 28 29 30 33
40 38 35 32 27 21 14 9 8 10 13 15 14 10 7 5 6 7 6 6 5 4 4 7 10 12 15 17 19 21 22 23 24 26 28 31 33 34
36 33 30 26 19 12 8 7 10 14 17 16 13 8 3 2 4 4 4 3 4 6 8 11 13 14 16 16 17 18 21 23 26 28 30 32 32 33
30 27 24 18 11 7 7 10 14 17 16 13 9 5 2 1 2 4 5 6 7 8 8 10 11 12 14 16 18 20 23 25 27 28 30 31 31 31
25 21 17 10 5 5 8 13 16 15 12 11 10 10 9 8 8 7 6 6 6 7 9 10 12 14 16 18 19 21 22 24 26 27 28 30 31 31
19 15 9 3 4 7 11 15 14 12 13 15 16 16 15 13 10 6 3 3 6 8 10 12 13 15 16 17 19 21 23 24 26 27 28 29 30 31

GEFSNE_500_meanwind_018.txt.gz
Wind_Speed
89 92 94 97 99 101 103 105 107 108 106 100 95 92 92 90 86 81 76 71 69 68 69 70 72 78 84 89 93 94 91 87 83 79 77 72 68 66
93 95 97 100 101 101 101 101 100 101 102 95 90 86 86 88 85 81 77 73 69 67 66 65 65 67 71 77 84 90 94 94 90 86 81 75 71 66
96 98 100 101 101 100 99 97 96 97 98 94 88 84 82 84 85 85 83 78 74 71 69 67 65 63 63 65 70 77 83 88 91 92 87 80 75 70
98 100 100 100 99 97 95 93 92 92 92 90 83 78 75 75 78 81 82 83 81 77 74 72 68 65 63 62 62 65 69 75 80 86 89 85 80 75
99 99 98 96 94 92 90 89 87 85 83 82 78 73 69 66 69 72 75 77 79 80 80 77 74 71 68 65 63 61 62 65 69 74 80 82 83 80
97 96 93 91 89 88 86 83 81 78 75 73 71 68 65 63 64 64 65 67 70 74 78 80 79 76 73 69 66 64 62 61 62 64 68 72 77 78
93 90 87 86 86 84 80 77 74 72 69 68 66 65 63 61 59 59 58 56 57 62 68 74 77 77 76 74 71 68 66 63 61 59 60 62 66 70
88 84 83 83 81 77 73 71 69 67 66 65 63 62 59 57 56 53 51 48 45 46 55 60 67 72 74 74 72 70 67 65 62 58 56 57 59 63
83 82 81 79 75 71 68 65 63 62 63 63 61 59 57 54 53 49 45 41 36 33 39 45 52 59 63 66 66 65 64 62 60 56 53 53 53 57
81 81 79 74 71 68 65 61 59 57 57 57 58 57 54 51 48 44 39 32 25 24 27 30 36 44 49 52 54 55 56 56 55 52 49 48 50 52
79 79 75 70 67 65 62 59 56 53 52 52 53 51 49 45 43 37 31 24 16 14 19 21 24 30 35 39 42 45 47 49 49 47 45 44 46 47
77 75 70 66 62 60 58 56 53 50 47 44 43 42 41 37 33 30 24 18 11 8 12 15 15 19 23 28 32 36 39 41 42 42 41 41 42 43
75 70 64 60 57 54 53 52 50 46 42 38 34 31 29 26 24 23 21 17 10 6 9 11 11 13 15 20 24 28 31 34 36 37 37 37 38 39
72 64 58 54 51 49 47 45 42 38 34 29 25 22 21 20 20 19 17 15 11 7 7 9 11 13 14 17 20 24 27 29 31 32 33 33 34 36
65 57 53 49 46 43 40 37 33 29 25 21 20 19 19 19 18 17 15 13 9 7 6 8 11 13 16 18 20 22 24 27 29 30 30 31 32 34
57 51 48 44 41 37 33 29 25 22 21 20 19 19 18 18 16 14 12 10 8 6 4 6 10 13 16 18 20 22 24 26 27 28 29 30 31 33
51 47 43 38 34 30 26 22 21 21 22 23 21 18 17 15 13 11 9 7 5 3 2 5 8 11 13 16 19 21 23 25 26 28 29 30 31 34
46 42 37 33 28 22 18 18 20 22 23 21 19 16 13 11 10 8 7 5 4 2 1 3 6 10 13 15 18 21 22 24 26 27 28 29 31 34
40 36 32 26 20 16 15 18 20 20 18 16 15 13 12 11 10 10 9 9 7 6 5 5 6 9 12 14 17 19 22 23 25 26 28 29 31 34
33 29 24 18 14 13 15 17 16 15 15 14 14 13 13 12 12 12 12 12 11 10 9 8 8 9 11 14 16 19 20 22 24 26 27 29 29 30
26 21 15 11 11 13 14 14 13 13 14 14 15 15 14 13 13 13 12 12 11 11 10 9 9 9 10 12 15 17 19 21 23 25 26 26 27 28
18 13 9 9 11 12 12 12 12 13 14 14 15 15 14 13 12 12 11 10 9 7 6 6 6 7 9 11 12 14 16 19 21 23 24 26 27 27
11 8 8 9 11 10 11 12 13 13 14 14 13 13 12 11 10 9 8 7 6 4 3 2 2 3 5 7 9 12 14 16 18 20 22 23 24 25

GEFSNE_500_meanwind_024.txt.gz
Wind_Speed
79 81 83 85 87 90 93 97 101 104 102 101 102 101 101 101 99 97 94 90 87 84 83 81 79 77 76 76 77 79 81 82 83 86 91 93 95 94
81 83 85 88 91 95 98 101 105 108 109 104 102 99 96 94 91 89 86 83 80 78 75 73 72 70 69 68 68 71 75 78 79 80 83 88 92 96
83 87 90 94 97 100 103 104 105 105 106 102 96 91 87 84 81 80 80 77 74 71 69 67 66 65 64 64 64 66 69 73 77 78 78 81 86 92
88 92 96 99 102 103 104 103 101 99 98 96 89 84 80 78 75 72 70 69 67 66 64 63 62 62 62 62 63 63 66 70 74 77 77 77 78 83
94 98 101 103 103 102 99 96 94 92 90 89 84 80 76 72 69 65 63 61 61 61 60 59 60 61 61 61 61 61 62 65 71 75 77 75 74 74
99 102 103 102 99 96 92 89 87 86 84 83 81 76 71 66 63 61 57 54 53 54 54 55 56 56 56 57 57 57 58 60 66 73 76 74 71 68
102 102 100 95 90 87 85 83 83 82 81 80 76 71 65 60 57 55 52 47 44 47 49 47 49 49 49 50 51 51 52 55 61 68 74 74 69 65
102 98 92 86 82 79 79 79 79 80 79 75 70 65 59 56 53 49 46 43 37 38 42 38 40 40 40 41 42 43 45 49 56 64 71 73 68 63
97 90 83 78 77 76 76 76 75 74 71 68 63 58 54 51 47 43 40 37 33 32 33 28 30 31 32 33 34 35 38 42 49 58 67 69 66 61
87 81 77 75 75 77 76 74 71 65 61 58 55 51 48 45 42 39 36 30 25 25 29 25 23 25 26 27 28 29 29 33 40 50 61 66 64 60
79 76 76 76 76 76 74 69 61 55 50 48 46 44 43 42 41 37 32 27 20 19 24 24 20 18 18 20 21 21 20 24 32 43 54 61 61 58
76 74 74 74 72 69 65 58 51 45 42 39 37 37 37 37 36 35 32 26 19 16 20 20 17 15 13 15 15 12 11 15 25 36 47 55 58 56
76 74 71 68 64 58 52 47 43 40 36 33 31 31 32 33 33 33 31 26 19 15 17 16 14 12 10 8 8 5 3 10 19 29 39 48 53 54
75 70 64 59 53 47 43 40 37 34 30 29 29 29 29 29 28 27 25 22 19 15 13 12 10 8 6 4 4 3 5 10 17 24 32 40 46 49
68 62 56 49 43 39 36 33 30 28 27 27 26 25 25 24 22 21 20 19 17 15 12 10 8 5 3 3 4 7 10 13 17 22 27 32 37 42
58 52 46 41 36 33 30 28 26 26 25 23 23 22 21 20 19 18 17 16 15 13 11 9 6 3 3 5 8 11 14 17 19 22 25 28 31 34
51 44 38 33 29 27 24 23 23 22 21 21 21 20 19 19 19 18 17 16 13 11 10 9 7 5 6 9 11 15 19 21 22 24 25 26 30 32
43 37 31 28 24 20 19 19 19 19 19 19 18 18 18 18 18 18 17 16 14 12 10 8 7 7 9 11 15 18 21 22 23 24 24 26 29 30
36 31 26 22 19 17 16 17 17 17 17 17 17 18 18 18 18 18 17 16 15 13 11 9 8 9 11 13 16 20 21 22 23 24 24 25 27 28
29 24 20 17 15 15 15 16 15 16 16 17 17 17 17 17 17 17 16 15 14 13 12 10 9 9 11 14 16 19 22 22 23 23 24 25 26 27
22 19 15 14 14 14 15 15 15 16 17 17 17 17 16 16 15 15 14 13 13 12 11 10 9 9 11 14 16 19 21 23 23 23 23 23 25 26
17 14 13 13 13 14 14 15 16 17 17 18 17 17 16 15 14 13 12 11 10 10 9 9 9 9 11 14 16 18 20 22 23 24 25 24 24 25
13 13 13 13 14 14 16 16 17 18 18 18 18 17 16 15 14 12 11 9 7 6 6 7 8 9 10 12 15 18 20 21 22 24 25 26 26 26

GEFSNE_500_meanwind_030.txt.gz
Wind_Speed
68 69 70 73 76 80 85 90 94 96 94 97 102 106 112 115 116 114 111 108 104 101 97 94 92 90 88 88 88 88 89 89 90 92 94 96 99 102
69 71 74 78 82 87 92 97 102 107 107 105 109 112 114 113 110 106 101 96 92 88 85 84 82 81 80 79 80 80 80 81 82 83 84 87 89 92
72 75 79 84 88 93 98 103 108 113 117 114 112 109 105 100 95 91 89 87 84 81 80 78 76 76 75 75 74 74 74 74 75 76 77 79 81 83
76 81 86 90 95 100 104 109 113 116 117 115 107 97 90 85 82 81 81 81 79 77 74 72 71 70 69 68 67 67 67 67 68 69 71 72 73 75
82 87 92 97 101 106 110 113 114 113 109 104 96 87 81 78 77 74 73 71 69 67 65 63 62 61 60 60 60 60 59 59 60 61 63 65 67 69
89 94 99 103 108 111 113 113 110 104 96 91 86 80 75 70 67 63 58 55 53 53 53 53 53 53 53 53 53 52 52 52 52 53 55 58 61 64
94 99 104 108 112 113 112 107 100 93 86 81 76 70 63 58 54 51 48 44 41 44 45 45 46 46 47 48 48 47 46 46 46 47 48 51 55 59
99 104 108 110 111 108 102 95 88 82 76 70 64 58 52 49 45 43 39 35 33 36 39 37 41 41 41 41 41 40 39 39 39 41 43 46 49 54
104 107 109 108 104 97 89 81 74 67 63 58 53 48 44 41 38 35 34 33 32 33 35 32 35 36 36 35 35 35 35 34 34 35 37 40 43 48
106 108 106 99 91 85 78 69 60 54 49 46 43 41 38 37 35 33 31 28 27 31 32 28 28 29 30 30 30 30 29 30 31 33 35 37 39 43
104 102 96 88 80 73 66 57 49 43 39 37 36 35 34 33 33 30 28 26 23 25 28 26 23 23 23 24 24 24 24 25 26 28 30 32 34 38
98 90 83 76 68 61 53 46 39 33 30 28 28 29 29 30 31 31 29 26 22 21 23 22 21 19 18 20 20 20 21 21 22 22 22 23 26 30
88 79 70 63 56 49 43 37 31 27 24 23 23 24 26 27 28 29 29 27 23 21 20 19 18 17 16 16 17 17 17 18 18 18 16 15 17 21
77 68 59 51 44 39 34 28 25 23 22 22 22 23 23 24 25 26 27 27 24 21 20 18 16 15 14 14 13 14 14 15 15 13 10 5 8 17
66 57 48 41 36 31 26 23 21 20 20 21 21 22 22 22 23 24 25 26 25 22 20 18 15 13 12 12 13 14 15 15 14 11 7 8 15 25
53 45 38 34 30 25 22 21 19 20 20 20 20 21 22 23 23 23 22 22 22 21 19 16 14 12 12 13 15 17 18 18 16 14 14 19 26 34
43 36 31 27 24 23 22 20 21 21 21 21 21 21 22 22 23 22 22 22 20 18 15 14 12 12 13 15 17 18 19 19 20 19 20 24 30 35
35 29 25 21 20 19 19 20 20 20 20 21 21 21 21 21 22 21 21 20 19 16 13 12 11 12 14 16 18 19 20 21 21 20 21 24 28 32
29 24 21 19 19 18 19 19 20 20 21 21 21 21 21 21 20 20 19 18 17 14 11 10 10 12 15 16 17 18 20 22 22 22 21 22 26 29
24 20 19 18 18 18 19 20 21 22 22 22 21 21 21 20 18 18 17 16 14 12 9 8 9 12 14 15 16 17 19 21 21 21 21 21 23 26
19 18 17 17 18 18 20 21 22 23 23 23 22 21 20 18 16 15 15 14 12 10 8 7 8 11 13 14 15 16 17 20 21 21 22 22 23 24
16 16 16 17 18 19 21 23 23 24 24 23 22 19 17 16 14 13 12 11 10 8 7 7 8 11 13 14 15 16 17 19 20 21 22 22 22 22
15 15 17 18 20 21 23 24 24 24 24 22 20 17 15 14 12 11 10 8 7 6 5 6 8 10 12 14 15 16 17 18 19 20 21 22 22 23

GEFSNE_500_meanwind_036.txt.gz
Wind_Speed
64 66 68 70 71 72 75 77 80 80 80 82 88 94 101 107 113 118 121 122 122 121 118 114 111 108 105 103 102 101 99 98 98 99 99 100 101 102
66 68 70 71 72 75 78 81 86 90 91 91 97 103 109 116 119 121 121 118 112 106 101 96 91 88 85 84 83 83 83 83 84 85 86 87 89 91
69 70 71 72 75 78 82 87 92 98 102 102 107 111 113 113 111 107 103 97 90 83 78 73 71 69 68 67 67 67 68 69 70 72 74 76 79 81
69 70 72 75 78 83 88 93 99 105 110 113 112 110 104 98 91 84 79 75 70 65 61 59 56 55 54 53 53 54 55 56 58 59 62 65 68 72
70 72 75 79 83 88 94 99 105 109 112 113 107 98 87 78 71 64 59 56 55 54 52 50 49 49 48 47 47 46 46 46 48 49 51 54 58 62
72 76 79 84 89 95 100 105 108 109 106 101 91 80 69 61 54 49 44 43 43 44 44 43 43 43 43 43 41 40 39 39 40 41 44 46 49 53
75 80 84 90 96 101 105 107 106 101 93 84 73 63 55 48 43 39 36 34 35 39 38 38 40 40 40 39 38 37 36 35 36 37 38 40 43 46
79 84 90 95 100 104 105 102 95 87 77 67 58 51 44 40 36 35 34 32 32 36 36 35 37 36 36 34 33 32 31 30 31 32 33 35 37 40
84 90 95 100 103 103 98 89 79 70 62 55 48 43 38 36 33 31 31 31 32 35 34 31 32 32 32 31 29 28 26 25 25 26 28 29 31 34
90 95 99 101 100 96 86 75 64 56 50 46 42 38 35 34 32 32 30 29 30 35 36 32 30 29 29 28 27 25 24 23 23 24 25 27 28 31
94 98 100 98 93 84 73 61 51 45 41 39 38 36 35 34 34 32 31 29 28 30 34 33 30 27 27 26 25 24 22 21 22 23 24 27 29 32
96 98 96 89 79 69 59 49 41 37 35 33 33 34 33 33 33 34 34 32 30 28 29 29 28 24 21 23 22 21 22 24 25 25 26 28 29 32
95 92 85 75 66 57 48 40 36 33 31 30 30 31 31 31 32 34 35 34 32 29 28 26 24 22 19 19 21 23 24 25 26 26 26 26 27 29
90 82 72 63 54 46 39 34 32 30 29 30 29 30 30 30 31 32 33 33 32 30 26 24 21 18 18 19 20 21 24 26 26 26 25 25 25 25
79 69 60 51 43 37 33 31 29 28 28 28 28 29 30 30 29 30 30 31 31 29 24 21 18 17 18 19 20 22 23 24 24 24 25 24 23 20
66 57 48 41 36 32 30 29 29 28 28 28 28 29 30 30 30 28 27 25 24 24 21 17 16 16 17 20 22 24 24 23 21 22 24 24 22 18
54 45 38 33 30 30 30 29 29 29 30 31 31 31 31 30 29 28 26 23 21 18 16 14 13 14 16 20 22 23 22 21 21 22 23 24 23 21
44 37 31 28 27 27 27 29 30 30 31 32 32 32 30 28 27 26 23 21 18 15 12 10 10 12 15 18 20 20 19 18 19 21 23 25 26 27
35 30 27 26 27 27 27 29 30 31 32 32 31 30 28 26 24 22 19 18 16 13 10 7 7 9 12 15 17 19 18 17 18 19 21 23 25 27
29 26 25 26 26 27 28 30 31 31 31 30 29 27 26 24 22 20 17 15 13 10 8 5 4 7 10 12 15 18 17 17 17 18 20 21 23 25
25 24 24 24 26 28 29 30 30 30 29 28 26 25 23 22 20 17 14 12 10 8 6 3 3 5 8 11 14 17 17 16 16 17 18 19 20 21
21 22 22 24 26 28 29 30 29 29 28 26 25 23 21 20 18 16 13 10 8 6 4 2 3 4 6 9 12 15 16 16 15 15 15 16 18 19
19 20 22 24 26 28 29 29 29 28 27 26 25 23 21 19 18 16 12 9 7 4 2 2 4 5 6 8 10 13 15 16 16 15 14 16 18 19

GEFSNE_500_meanwind_042.txt.gz
Wind_Speed
58 60 62 64 66 68 69 71 73 74 73 74 77 79 82 85 89 93 96 100 104 106 107 107 104 98 94 91 88 87 87 88 90 92 95 99 103 108
60 62 64 66 68 70 72 73 74 75 76 77 80 84 88 93 97 102 105 106 106 103 99 92 85 78 72 67 64 63 63 63 65 68 71 75 79 84
62 64 66 68 70 72 73 74 75 77 79 80 85 89 95 99 103 105 104 100 93 85 78 70 64 59 54 52 50 49 49 51 52 54 56 59 63 67
64 66 68 70 71 72 74 75 78 81 84 86 89 95 98 101 101 98 91 82 73 65 59 54 51 48 46 45 44 43 44 44 46 48 50 52 54 56
65 67 69 71 72 73 75 78 81 85 90 93 95 97 98 97 91 81 71 63 56 51 48 46 45 43 42 42 42 42 41 41 42 44 45 47 48 50
67 69 70 71 73 75 78 82 87 91 95 97 98 96 92 83 74 62 53 48 45 44 43 42 41 42 42 42 42 41 39 38 38 40 41 43 44 45
68 69 71 73 75 79 84 88 93 96 98 98 95 88 77 65 55 48 42 39 39 41 39 39 40 40 41 41 41 40 39 37 36 35 36 38 39 41
68 70 72 75 79 84 89 93 96 97 96 92 84 72 59 50 43 39 37 35 34 37 37 37 39 39 39 39 38 37 35 33 32 32 33 33 34 35
69 72 75 79 84 89 92 95 95 92 87 78 67 55 47 41 37 35 34 33 34 36 36 35 36 36 36 35 32 30 29 29 29 29 30 30 31 31
72 75 80 85 90 93 93 92 87 80 71 61 53 45 40 38 36 34 33 32 32 36 37 34 34 33 32 31 29 27 27 27 27 28 28 29 29 30
75 80 85 90 92 93 90 84 75 64 55 48 43 40 38 36 36 35 34 33 31 33 35 33 32 30 29 29 27 26 26 27 27 27 28 28 28 29
79 85 90 92 92 88 81 70 59 50 44 40 38 37 37 37 37 37 36 35 33 31 31 30 28 26 24 26 26 25 26 27 28 28 28 28 28 29
84 89 91 90 84 76 66 55 47 40 37 36 35 36 36 37 37 37 38 37 35 32 30 26 24 23 21 19 23 25 26 26 26 26 27 28 28 30
88 90 87 80 71 61 52 44 39 35 34 35 35 36 36 36 36 37 37 37 35 31 27 24 21 19 17 17 19 21 24 25 24 25 26 27 28 30
88 84 76 66 56 48 42 37 34 34 34 34 35 36 36 36 35 34 34 34 32 29 24 21 19 17 16 16 18 19 19 21 23 25 26 28 29 29
80 71 61 52 45 39 35 33 33 33 33 34 35 35 35 35 34 32 30 29 27 27 24 20 17 16 15 16 18 19 20 20 21 24 26 27 29 30
68 57 48 41 36 33 32 32 32 33 34 34 34 34 33 33 31 29 27 26 23 21 20 19 17 15 14 15 17 19 20 21 22 23 24 27 29 31
53 43 37 33 31 30 30 31 32 32 32 33 32 32 31 30 28 27 26 23 21 18 16 15 14 13 14 16 17 18 19 19 20 22 24 26 28 29
39 33 30 28 28 28 28 30 31 32 32 31 31 30 30 29 27 25 24 22 19 16 13 12 11 10 11 13 17 17 17 17 19 21 23 25 27 27
30 27 26 25 26 27 28 30 31 32 32 31 31 30 29 28 26 24 21 18 16 14 12 10 8 8 8 10 13 15 16 16 17 19 21 23 25 25
24 23 22 23 25 27 29 30 31 31 31 31 30 29 28 26 24 21 19 16 14 12 10 7 6 6 7 9 12 13 14 15 16 18 20 22 22 22
19 19 20 22 24 27 29 30 31 31 31 30 30 28 26 24 22 19 17 14 12 10 8 5 4 4 6 8 11 12 13 14 16 18 19 20 20 20
16 17 19 21 24 27 29 30 30 31 30 29 29 27 25 23 20 18 15 12 10 8 6 3 2 3 5 7 9 11 13 13 15 16 18 19 20 20

GEFSNE_500_meanwind_048.txt.gz
Wind_Speed
50 51 52 54 56 58 60 63 65 66 66 66 68 70 72 73 74 76 77 79 82 85 88 91 93 96 98 98 97 94 92 88 85 82 81 80 81 83
51 52 54 56 58 60 62 65 67 70 71 70 72 73 74 75 77 79 82 85 88 92 95 98 99 98 95 90 84 77 71 66 62 61 60 60 60 62
52 54 56 58 60 62 65 67 69 71 73 72 74 75 77 79 81 85 88 91 94 97 98 97 93 87 79 71 64 58 53 51 49 49 48 49 50 51
54 56 58 60 63 65 67 69 71 72 74 74 74 77 80 84 87 90 93 96 96 94 90 84 77 68 60 54 49 46 44 43 43 43 44 44 44 45
56 58 60 63 65 67 69 70 72 73 75 77 78 81 85 90 92 94 94 92 88 81 73 65 57 51 47 44 42 41 40 40 40 41 41 41 43 44
58 60 63 65 67 68 70 71 73 74 77 81 83 87 90 94 94 92 86 80 71 63 56 50 46 44 42 41 41 40 39 39 39 39 39 39 39 39
60 62 64 66 68 69 71 72 74 78 82 86 89 92 93 92 89 83 73 62 53 50 45 43 42 41 41 42 41 41 40 39 39 37 37 36 36 36
61 63 65 67 68 69 72 75 79 84 88 92 93 93 90 85 77 67 57 48 43 43 42 40 41 40 41 41 41 40 39 38 37 36 35 34 34 33
62 64 65 67 69 71 74 79 84 90 94 95 91 86 79 70 62 53 47 43 42 42 42 39 39 39 40 40 40 38 37 36 34 33 33 33 33 33
63 64 66 69 72 75 79 84 89 92 92 88 81 73 64 56 50 46 43 42 40 42 43 39 38 38 38 39 38 36 34 33 32 31 31 30 31 31
63 66 69 72 76 81 85 88 89 87 81 74 66 59 52 48 45 44 43 42 40 39 43 41 39 37 35 36 36 33 31 30 29 28 28 28 29 29
64 68 73 77 81 85 87 87 82 74 66 58 53 49 45 44 44 44 43 43 41 39 40 39 37 36 31 32 33 31 29 28 27 26 26 26 27 27
67 72 76 81 83 85 84 79 70 60 53 48 44 42 42 42 43 43 43 43 42 40 39 36 33 32 29 25 28 29 27 26 25 25 25 25 26 27
71 75 79 81 82 80 75 66 56 49 44 41 40 40 40 41 42 42 42 41 41 40 37 35 31 28 25 23 23 25 25 24 24 24 24 26 28 29
74 77 79 80 77 71 62 53 46 42 39 37 38 39 40 41 41 40 40 39 39 39 37 33 29 24 22 20 19 21 21 23 24 23 24 25 27 28
75 77 78 74 67 57 48 43 39 37 36 36 37 39 40 40 40 39 37 36 35 35 35 32 26 22 19 17 16 17 19 20 22 23 24 25 28 29
75 75 70 62 52 44 39 36 34 34 35 37 38 38 38 38 38 38 36 34 32 30 28 27 24 20 17 15 14 15 16 18 20 21 22 24 27 29
72 67 58 48 39 34 32 32 32 34 35 37 38 38 37 37 36 36 34 32 29 27 24 21 18 17 16 16 15 13 15 17 19 21 23 25 25 28
63 54 43 35 30 29 29 30 32 34 36 37 37 37 36 36 35 33 31 29 27 24 21 17 15 14 13 14 17 17 15 17 19 22 24 26 26 27
50 39 31 26 26 27 28 30 32 35 36 37 37 36 36 34 33 31 29 26 23 19 17 16 14 12 11 11 13 17 19 20 21 22 24 25 26 27
35 27 23 23 25 27 29 31 33 35 36 36 36 36 35 33 31 29 25 23 19 16 14 14 13 12 11 11 13 15 19 22 23 23 22 22 23 24
24 21 21 23 25 27 29 31 34 35 36 36 36 35 33 31 29 25 22 19 16 14 12 12 11 11 11 12 14 16 18 21 23 23 23 23 22 21
18 19 20 22 24 27 29 32 34 34 35 35 35 33 31 29 26 22 19 16 14 12 11 10 10 11 12 13 15 17 18 20 21 22 23 23 22 21